Elbow Lake, MN

2:07 PM CDT on April 26, 2017 (GMT -0500)
Elbow Lake

Weather History for KY63 - November, 2012

Change the Weather History Date:

Saturday, November 3, 2012

  Actual Average (KFFM) Record (KFFM)
Temperature  
Mean Temperature 34 °F -  
Max Temperature 35 °F 43 °F 71 °F (2008)
Min Temperature 32 °F 27 °F 6 °F (1951)
Degree Days  
Heating Degree Days 32    
Moisture  
Dew Point 30 °F    
Average Humidity 86    
Maximum Humidity 93    
Minimum Humidity 81    
Precipitation  
Precipitation 0.00 in - - ()
Sea Level Pressure  
Sea Level Pressure 30.17 in    
Wind  
Wind Speed 4 mph (SE)    
Max Wind Speed 10 mph    
Max Gust Speed -    
Visibility 10 miles    
Events      
Averages and records for this station are not official NWS values.
T = Trace of Precipitation, MM = Missing Value Source: NWS Daily Summary

Daily Weather History Graph

Daily Weather History Graph

Search for Another Location

Airport or City:

Trip Planner

Search our weather history database for the weather conditions in past years. The results will help you decide how hot, cold, wet, or windy it might be!

Date:

Astronomy

Nov. 03, 2012 Rise Set
Actual Time 8:08 AM CDT 6:06 PM CDT
Civil Twilight 7:36 AM CDT 6:37 PM CDT
Nautical Twilight 7:01 AM CDT 7:13 PM CDT
Astronomical Twilight 6:26 AM CDT 7:47 PM CDT
Moon 9:43 PM CDT (11/3) 12:18 PM CDT (11/3)
Length of Visible Light 11h 01m
Length of Day
9h 58m
Waning Gibbous, 80% of the Moon is Illuminated
Nov 3
Waning Gibbous
Nov 6
Last Quarter
Nov 13
New
Nov 20
First Quarter
Nov 28
Full

Hourly Weather History & Observations

Time (CDT) Temp. Windchill Dew Point Humidity Pressure Visibility Wind Dir Wind Speed Gust Speed Precip Events Conditions
12:15 AM 33.8 °F - 28.4 °F 81% 30.15 in 10.0 mi Calm Calm - N/A   Overcast
12:35 AM 33.8 °F - 28.4 °F 81% 30.15 in 10.0 mi Calm Calm - N/A   Overcast
12:55 AM 33.8 °F 30.8 °F 28.4 °F 81% 30.15 in 10.0 mi South 3.5 mph - N/A   Overcast
1:15 AM 33.8 °F 30.8 °F 28.4 °F 81% 30.15 in 10.0 mi SE 3.5 mph - N/A   Overcast
1:35 AM 33.8 °F 30.8 °F 28.4 °F 81% 30.15 in 10.0 mi SSE 3.5 mph - N/A   Overcast
1:55 AM 33.8 °F - 28.4 °F 81% 30.15 in 10.0 mi Calm Calm - N/A   Overcast
2:15 AM 32.0 °F - 28.4 °F 87% 30.15 in 10.0 mi Calm Calm - N/A   Overcast
2:35 AM 32.0 °F 27.5 °F 28.4 °F 87% 30.14 in 10.0 mi SSE 4.6 mph - N/A   Overcast
2:55 AM 32.0 °F 28.7 °F 28.4 °F 87% 30.15 in 10.0 mi SSE 3.5 mph - N/A   Overcast
3:15 AM 33.8 °F - 28.4 °F 81% 30.15 in 10.0 mi Calm Calm - N/A   Overcast
3:35 AM 33.8 °F - 28.4 °F 81% 30.15 in 10.0 mi Calm Calm - N/A   Overcast
3:55 AM 33.8 °F 30.8 °F 28.4 °F 81% 30.15 in 10.0 mi SE 3.5 mph - N/A   Overcast
4:15 AM 32.0 °F 28.7 °F 28.4 °F 87% 30.15 in 10.0 mi SSE 3.5 mph - N/A   Overcast
4:35 AM 32.0 °F 28.7 °F 28.4 °F 87% 30.15 in 10.0 mi South 3.5 mph - N/A   Overcast
4:55 AM 32.0 °F 28.7 °F 28.4 °F 87% 30.15 in 10.0 mi SSE 3.5 mph - N/A   Overcast
5:15 AM 32.0 °F 28.7 °F 28.4 °F 87% 30.15 in 10.0 mi SSE 3.5 mph - N/A   Overcast
5:35 AM 32.0 °F 28.7 °F 28.4 °F 87% 30.15 in 10.0 mi SE 3.5 mph - N/A   Overcast
5:55 AM 32.0 °F 28.7 °F 28.4 °F 87% 30.15 in 10.0 mi SE 3.5 mph - N/A   Overcast
6:15 AM 32.0 °F 28.7 °F 28.4 °F 87% 30.16 in 10.0 mi SSE 3.5 mph - N/A   Overcast
6:35 AM 32.0 °F 28.7 °F 28.4 °F 87% 30.16 in 10.0 mi SSE 3.5 mph - N/A   Overcast
6:55 AM 32.0 °F 27.5 °F 28.4 °F 87% 30.15 in 10.0 mi SE 4.6 mph - N/A   Overcast
7:15 AM 32.0 °F 28.7 °F 28.4 °F 87% 30.16 in 10.0 mi SSE 3.5 mph - N/A   Overcast
7:35 AM 32.0 °F 27.5 °F 28.4 °F 87% 30.16 in 10.0 mi SSE 4.6 mph - N/A   Overcast
7:55 AM 32.0 °F 27.5 °F 28.4 °F 87% 30.16 in 10.0 mi SE 4.6 mph - N/A   Overcast
8:15 AM 32.0 °F 27.5 °F 28.4 °F 87% 30.16 in 10.0 mi SE 4.6 mph - N/A   Overcast
8:35 AM 32.0 °F 27.5 °F 28.4 °F 87% 30.16 in 10.0 mi SSE 4.6 mph - N/A   Overcast
9:15 AM 32.0 °F 27.5 °F 30.2 °F 93% 30.17 in 10.0 mi SSE 4.6 mph - N/A   Overcast
9:35 AM 33.8 °F 30.8 °F 30.2 °F 87% 30.17 in 10.0 mi SE 3.5 mph - N/A   Overcast
9:55 AM 33.8 °F 28.6 °F 30.2 °F 87% 30.17 in 10.0 mi SSE 5.8 mph - N/A   Overcast
10:15 AM 33.8 °F 27.7 °F 30.2 °F 87% 30.18 in 10.0 mi SE 6.9 mph - N/A   Overcast
10:35 AM 33.8 °F 27.7 °F 30.2 °F 87% 30.18 in 10.0 mi SSE 6.9 mph - N/A   Overcast
10:55 AM 33.8 °F 27.7 °F 30.2 °F 87% 30.18 in 10.0 mi SSE 6.9 mph - N/A   Overcast
11:15 AM 35.6 °F 28.6 °F 30.2 °F 81% 30.18 in 10.0 mi SSE 9.2 mph - N/A   Overcast
11:35 AM 35.6 °F 29.9 °F 30.2 °F 81% 30.18 in 10.0 mi SSE 6.9 mph - N/A   Overcast
11:55 AM 35.6 °F 29.2 °F 30.2 °F 81% 30.18 in 10.0 mi SSE 8.1 mph - N/A   Overcast
12:15 PM 35.6 °F 29.2 °F 30.2 °F 81% 30.18 in 10.0 mi SSE 8.1 mph - N/A   Overcast
12:35 PM 35.6 °F 29.2 °F 30.2 °F 81% 30.18 in 10.0 mi SSE 8.1 mph - N/A   Overcast
12:55 PM 35.6 °F 28.0 °F 30.2 °F 81% 30.18 in 10.0 mi South 10.4 mph - N/A   Overcast
1:15 PM 35.6 °F 28.6 °F 30.2 °F 81% 30.18 in 10.0 mi SSE 9.2 mph - N/A   Overcast
1:35 PM 35.6 °F 29.9 °F 30.2 °F 81% 30.17 in 10.0 mi SSE 6.9 mph - N/A   Overcast
1:55 PM 35.6 °F 30.7 °F 30.2 °F 81% 30.17 in 10.0 mi SSE 5.8 mph - N/A   Overcast
2:15 PM 35.6 °F 29.2 °F 30.2 °F 81% 30.17 in 10.0 mi South 8.1 mph - N/A   Overcast
2:35 PM 35.6 °F 29.9 °F 30.2 °F 81% 30.17 in 10.0 mi SSE 6.9 mph - N/A   Overcast
2:55 PM 35.6 °F 29.2 °F 30.2 °F 81% 30.17 in 10.0 mi SSE 8.1 mph - N/A   Overcast
3:15 PM 35.6 °F 29.2 °F 30.2 °F 81% 30.16 in 10.0 mi SE 8.1 mph - N/A   Overcast
3:35 PM 35.6 °F 30.7 °F 30.2 °F 81% 30.16 in 10.0 mi SSE 5.8 mph - N/A   Overcast
3:55 PM 35.6 °F 28.6 °F 30.2 °F 81% 30.16 in 10.0 mi SSE 9.2 mph - N/A   Overcast
4:15 PM 35.6 °F 28.6 °F 30.2 °F 81% 30.16 in 10.0 mi SSE 9.2 mph - N/A   Overcast
4:35 PM 35.6 °F 30.7 °F 30.2 °F 81% 30.16 in 10.0 mi SE 5.8 mph - N/A   Overcast
4:55 PM 35.6 °F 30.7 °F 30.2 °F 81% 30.16 in 10.0 mi SE 5.8 mph - N/A   Overcast
5:15 PM 35.6 °F 29.9 °F 30.2 °F 81% 30.16 in 10.0 mi SE 6.9 mph - N/A   Overcast
5:35 PM 35.6 °F 31.7 °F 30.2 °F 81% 30.16 in 10.0 mi SE 4.6 mph - N/A   Overcast
5:55 PM 35.6 °F 32.8 °F 30.2 °F 81% 30.17 in 10.0 mi SE 3.5 mph - N/A   Overcast
6:15 PM 35.6 °F 30.7 °F 32.0 °F 87% 30.17 in 10.0 mi SE 5.8 mph - N/A   Overcast
6:35 PM 35.6 °F 30.7 °F 32.0 °F 87% 30.17 in 10.0 mi ESE 5.8 mph - N/A   Overcast
6:55 PM 35.6 °F 30.7 °F 32.0 °F 87% 30.18 in 10.0 mi East 5.8 mph - N/A   Overcast
7:15 PM 33.8 °F 30.8 °F 32.0 °F 93% 30.18 in 10.0 mi ESE 3.5 mph - N/A   Overcast
7:35 PM 33.8 °F 29.6 °F 32.0 °F 93% 30.18 in 10.0 mi ESE 4.6 mph - N/A   Overcast
7:55 PM 33.8 °F 29.6 °F 32.0 °F 93% 30.18 in 10.0 mi ESE 4.6 mph - N/A   Overcast
8:15 PM 33.8 °F 28.6 °F 32.0 °F 93% 30.19 in 10.0 mi East 5.8 mph - N/A   Overcast
8:35 PM 33.8 °F 29.6 °F 32.0 °F 93% 30.19 in 10.0 mi East 4.6 mph - N/A   Overcast
8:55 PM 33.8 °F 27.7 °F 32.0 °F 93% 30.19 in 10.0 mi East 6.9 mph - N/A   Overcast
9:15 PM 33.8 °F 27.7 °F 32.0 °F 93% 30.19 in 10.0 mi East 6.9 mph - N/A   Overcast
9:35 PM 33.8 °F 27.7 °F 32.0 °F 93% 30.19 in 10.0 mi East 6.9 mph - N/A   Overcast
9:55 PM 33.8 °F 27.7 °F 32.0 °F 93% 30.20 in 10.0 mi East 6.9 mph - N/A   Overcast
10:15 PM 33.8 °F 27.7 °F 32.0 °F 93% 30.20 in 10.0 mi East 6.9 mph - N/A   Overcast
10:35 PM 33.8 °F 29.6 °F 32.0 °F 93% 30.20 in 10.0 mi ESE 4.6 mph - N/A   Overcast
10:55 PM 33.8 °F 29.6 °F 32.0 °F 93% 30.20 in 10.0 mi East 4.6 mph - N/A   Overcast
11:15 PM 33.8 °F 29.6 °F 32.0 °F 93% 30.20 in 10.0 mi East 4.6 mph - N/A   Overcast
11:35 PM 33.8 °F 29.6 °F 32.0 °F 93% 30.20 in 10.0 mi ESE 4.6 mph - N/A   Overcast
11:55 PM 33.8 °F 29.6 °F 32.0 °F 93% 30.19 in 10.0 mi East 4.6 mph - N/A   Overcast